| time (UTC) | temp C | wind direction | speed KPH | gust KPH | rain 1hr cm | rain 24hr cm | rain mn cm | humidity % | barometer mb |
| 20260901024522 | 32 | 90 | 4.8 | 14.5 | 0.00 | 0.00 | 0.00 | 45 | 1013.2 |
| 20260901024021 | 33 | 101 | 4.8 | 14.5 | 0.00 | 0.00 | 0.00 | 44 | 1013.1 |
| 20260901023522 | 33 | 141 | 4.8 | 14.5 | 0.00 | 0.00 | 0.00 | 43 | 1013.0 |
| 20260901023021 | 33 | 100 | 1.6 | 14.5 | 0.00 | 0.00 | 0.00 | 43 | 1012.9 |
| 20260901022522 | 33 | 126 | 1.6 | 19.3 | 0.00 | 0.00 | 0.00 | 42 | 1012.8 |
| 20260901022021 | 33 | 158 | 3.2 | 19.3 | 0.00 | 0.00 | 0.00 | 41 | 1012.6 |
| 20260901021521 | 33 | 184 | 6.4 | 9.7 | 0.00 | 0.00 | 0.00 | 40 | 1012.7 |
| 20260901021021 | 33 | 180 | 1.6 | 9.7 | 0.00 | 0.00 | 0.00 | 40 | 1012.4 |
| 20260901020521 | 33 | 136 | 4.8 | 9.7 | 0.00 | 0.00 | 0.00 | 40 | 1012.3 |
| 20260901015521 | 33 | 126 | 3.2 | 4.8 | 0.00 | 0.00 | 0.00 | 39 | 1012.2 |
| 20260901014521 | 34 | 141 | 3.2 | 12.9 | 0.00 | 0.00 | 0.00 | 39 | 1012.1 |
| 20260901013021 | 34 | 117 | 1.6 | 9.7 | 0.00 | 0.00 | 0.00 | 39 | 1012.0 |
| 20260901012521 | 34 | 118 | 3.2 | 9.7 | 0.00 | 0.00 | 0.00 | 39 | 1012.0 |
| 20260901012021 | 34 | 168 | 1.6 | 4.8 | 0.00 | 0.00 | 0.00 | 39 | 1011.9 |
| 20260901011521 | 35 | 104 | 1.6 | 4.8 | 0.00 | 0.00 | 0.00 | 39 | 1011.8 |
| 20260901011021 | 35 | 90 | 0.0 | 6.4 | 0.00 | 0.00 | 0.00 | 39 | 1011.8 |
| 20260901010520 | 35 | 109 | 0.0 | 6.4 | 0.00 | 0.00 | 0.00 | 38 | 1011.7 |
| 20260901010021 | 35 | 103 | 0.0 | 0.0 | 0.00 | 0.00 | 0.00 | 38 | 1011.7 |
| 20260901005521 | 35 | 109 | 0.0 | 1.6 | 0.00 | 0.00 | 0.00 | 38 | 1011.6 |
| 20260901005020 | 35 | 109 | 0.0 | 1.6 | 0.00 | 0.00 | 0.00 | 38 | 1011.6 |
| 20260901004020 | 35 | 109 | 0.0 | 3.2 | 0.00 | 0.00 | 0.00 | 38 | 1011.7 |
| 20260901003520 | 36 | 109 | 0.0 | 6.4 | 0.00 | 0.00 | 0.00 | 37 | 1011.6 |
| 20260901003020 | 36 | 98 | 0.0 | 11.3 | 0.00 | 0.00 | 0.00 | 37 | 1011.6 |
| 20260901002520 | 36 | 101 | 3.2 | 11.3 | 0.00 | 0.00 | 0.00 | 37 | 1011.6 |
| 20260901001520 | 36 | 106 | 6.4 | 9.7 | 0.00 | 0.00 | 0.00 | 37 | 1011.6 |
| 20260901000520 | 36 | 112 | 6.4 | 12.9 | 0.00 | 0.00 | 0.00 | 37 | 1011.6 |
| 20260901000020 | 36 | 98 | 9.7 | 12.9 | 0.00 | 0.00 | 0.00 | 37 | 1011.5 |
| 20260831235520 | 36 | 157 | 4.8 | 12.9 | 0.00 | 0.00 | 0.00 | 37 | 1011.5 |
| 20260831235020 | 36 | 123 | 0.0 | 1.6 | 0.00 | 0.00 | 0.00 | 37 | 1011.5 |
| 20260831234520 | 36 | 123 | 1.6 | 12.9 | 0.00 | 0.00 | 0.00 | 37 | 1011.5 |
| 20260831234020 | 36 | 90 | 1.6 | 12.9 | 0.00 | 0.00 | 0.00 | 37 | 1011.5 |
| 20260831233020 | 36 | 54 | 1.6 | 12.9 | 0.00 | 0.00 | 0.00 | 37 | 1011.5 |
| 20260831232519 | 37 | 170 | 3.2 | 14.5 | 0.00 | 0.00 | 0.00 | 37 | 1011.5 |
| 20260831232019 | 37 | 320 | 3.2 | 14.5 | 0.00 | 0.00 | 0.00 | 37 | 1011.5 |
| 20260831231020 | 37 | 90 | 9.7 | 14.5 | 0.00 | 0.00 | 0.00 | 37 | 1011.5 |
| 20260831230520 | 37 | 105 | 3.2 | 12.9 | 0.00 | 0.00 | 0.00 | 38 | 1011.5 |
| 20260831230019 | 37 | 115 | 6.4 | 9.7 | 0.00 | 0.00 | 0.00 | 38 | 1011.4 |
| 20260831225521 | 36 | 115 | 6.4 | 12.9 | 0.00 | 0.00 | 0.00 | 38 | 1011.5 |
| 20260831224519 | 36 | 111 | 1.6 | 3.2 | 0.00 | 0.00 | 0.00 | 38 | 1011.6 |
| 20260831224019 | 36 | 119 | 3.2 | 11.3 | 0.00 | 0.00 | 0.00 | 39 | 1011.6 |
| 20260831223019 | 36 | 111 | 1.6 | 4.8 | 0.00 | 0.00 | 0.00 | 39 | 1011.8 |
| 20260831222519 | 36 | 82 | 1.6 | 4.8 | 0.00 | 0.00 | 0.00 | 39 | 1011.9 |
| 20260831222019 | 36 | 142 | 1.6 | 6.4 | 0.00 | 0.00 | 0.00 | 39 | 1011.9 |
| 20260831221518 | 36 | 215 | 0.0 | 16.1 | 0.00 | 0.00 | 0.00 | 39 | 1011.9 |
| 20260831221018 | 36 | 103 | 9.7 | 16.1 | 0.00 | 0.00 | 0.00 | 39 | 1011.9 |
| 20260831220519 | 37 | 116 | 3.2 | 14.5 | 0.00 | 0.00 | 0.00 | 38 | 1011.8 |
| 20260831220018 | 37 | 87 | 12.9 | 14.5 | 0.00 | 0.00 | 0.00 | 39 | 1011.7 |
| 20260831215018 | 37 | 127 | 3.2 | 11.3 | 0.00 | 0.00 | 0.00 | 39 | 1011.9 |
| 20260831214019 | 37 | 94 | 9.7 | 12.9 | 0.00 | 0.00 | 0.00 | 39 | 1012.2 |
| 20260831213518 | 37 | 136 | 12.9 | 12.9 | 0.00 | 0.00 | 0.00 | 39 | 1012.3 |
| 20260831213018 | 37 | 142 | 1.6 | 6.4 | 0.00 | 0.00 | 0.00 | 39 | 1012.3 |
| 20260831212518 | 37 | 296 | 6.4 | 6.4 | 0.00 | 0.00 | 0.00 | 40 | 1012.3 |
| 20260831212018 | 37 | 128 | 1.6 | 4.8 | 0.00 | 0.00 | 0.00 | 40 | 1012.3 |
| 20260831211518 | 37 | 234 | 1.6 | 6.4 | 0.00 | 0.00 | 0.00 | 40 | 1012.4 |
| 20260831211018 | 36 | 307 | 1.6 | 16.1 | 0.00 | 0.00 | 0.00 | 41 | 1012.5 |
| 20260831210018 | 36 | 99 | 4.8 | 4.8 | 0.00 | 0.00 | 0.00 | 41 | 1012.5 |
| 20260831205518 | 36 | 147 | 1.6 | 11.3 | 0.00 | 0.00 | 0.00 | 41 | 1012.7 |
| 20260831205018 | 36 | 179 | 3.2 | 14.5 | 0.00 | 0.00 | 0.00 | 42 | 1012.9 |
| 20260831204518 | 36 | 99 | 14.5 | 14.5 | 0.00 | 0.00 | 0.00 | 41 | 1012.9 |
| 20260831204018 | 36 | 169 | 9.7 | 11.3 | 0.00 | 0.00 | 0.00 | 41 | 1013.0 |
| 20260831203518 | 36 | 218 | 4.8 | 11.3 | 0.00 | 0.00 | 0.00 | 42 | 1013.3 |
| 20260831203018 | 36 | 111 | 3.2 | 9.7 | 0.00 | 0.00 | 0.00 | 42 | 1013.4 |
| 20260831202018 | 36 | 118 | 1.6 | 8.0 | 0.00 | 0.00 | 0.00 | 45 | 1013.5 |
| 20260831201517 | 36 | 188 | 1.6 | 14.5 | 0.00 | 0.00 | 0.00 | 45 | 1013.6 |
| 20260831200517 | 36 | 33 | 1.6 | 11.3 | 0.00 | 0.00 | 0.00 | 45 | 1013.7 |
| 20260831200017 | 36 | 82 | 8.0 | 11.3 | 0.00 | 0.00 | 0.00 | 45 | 1013.8 |
| 20260831195517 | 36 | 185 | 3.2 | 8.0 | 0.00 | 0.00 | 0.00 | 45 | 1014.0 |
| 20260831195017 | 36 | 155 | 6.4 | 6.4 | 0.00 | 0.00 | 0.00 | 46 | 1014.1 |
| 20260831194517 | 36 | 90 | 3.2 | 4.8 | 0.00 | 0.00 | 0.00 | 46 | 1014.1 |
| 20260831193517 | 35 | 113 | 1.6 | 8.0 | 0.00 | 0.00 | 0.00 | 48 | 1014.2 |
| 20260831193017 | 35 | 115 | 6.4 | 9.7 | 0.00 | 0.00 | 0.00 | 48 | 1014.2 |
| 20260831192517 | 35 | 104 | 9.7 | 9.7 | 0.00 | 0.00 | 0.00 | 48 | 1014.3 |
| 20260831192017 | 35 | 190 | 1.6 | 6.4 | 0.00 | 0.00 | 0.00 | 48 | 1014.3 |
| 20260831191516 | 35 | 226 | 6.4 | 9.7 | 0.00 | 0.00 | 0.00 | 49 | 1014.3 |
| 20260831191016 | 35 | 105 | 6.4 | 17.7 | 0.00 | 0.00 | 0.00 | 49 | 1014.5 |
| 20260831190016 | 35 | 165 | 3.2 | 12.9 | 0.00 | 0.00 | 0.00 | 51 | 1014.6 |
| 20260831185517 | 35 | 189 | 4.8 | 17.7 | 0.00 | 0.00 | 0.00 | 51 | 1014.8 |
| 20260831185016 | 35 | 89 | 14.5 | 17.7 | 0.00 | 0.00 | 0.00 | 51 | 1014.8 |
| 20260831184516 | 35 | 130 | 11.3 | 11.3 | 0.00 | 0.00 | 0.00 | 52 | 1014.9 |
| 20260831183516 | 35 | 110 | 6.4 | 11.3 | 0.00 | 0.00 | 0.00 | 52 | 1014.9 |
| 20260831183016 | 34 | 281 | 4.8 | 8.0 | 0.00 | 0.00 | 0.00 | 53 | 1014.9 |
| 20260831182516 | 34 | 130 | 8.0 | 9.7 | 0.00 | 0.00 | 0.00 | 55 | 1015.0 |
| 20260831182016 | 34 | 223 | 1.6 | 17.7 | 0.00 | 0.00 | 0.00 | 55 | 1015.0 |
| 20260831181516 | 33 | 98 | 11.3 | 17.7 | 0.00 | 0.00 | 0.00 | 55 | 1015.0 |
| 20260831181016 | 33 | 97 | 4.8 | 12.9 | 0.00 | 0.00 | 0.00 | 56 | 1015.0 |
| 20260831180516 | 33 | 95 | 6.4 | 12.9 | 0.00 | 0.00 | 0.00 | 56 | 1015.1 |
| 20260831180015 | 33 | 290 | 8.0 | 12.9 | 0.00 | 0.00 | 0.00 | 57 | 1015.2 |
| 20260831175515 | 33 | 296 | 3.2 | 14.5 | 0.00 | 0.00 | 0.00 | 59 | 1015.2 |
| 20260831175016 | 33 | 125 | 6.4 | 14.5 | 0.00 | 0.00 | 0.00 | 59 | 1015.4 |
| 20260831174515 | 33 | 334 | 4.8 | 9.7 | 0.00 | 0.00 | 0.00 | 60 | 1015.5 |
| 20260831173515 | 33 | 103 | 6.4 | 12.9 | 0.00 | 0.00 | 0.00 | 61 | 1015.7 |
| 20260831173015 | 33 | 180 | 3.2 | 8.0 | 0.00 | 0.00 | 0.00 | 62 | 1015.9 |
| 20260831172515 | 33 | 144 | 0.0 | 11.3 | 0.00 | 0.00 | 0.00 | 61 | 1015.8 |
| 20260831172015 | 32 | 159 | 6.4 | 11.3 | 0.00 | 0.00 | 0.00 | 63 | 1015.8 |
| 20260831171515 | 32 | 113 | 1.6 | 16.1 | 0.00 | 0.00 | 0.00 | 64 | 1015.9 |
| 20260831171015 | 32 | 130 | 12.9 | 16.1 | 0.00 | 0.00 | 0.00 | 64 | 1015.9 |
| 20260831170015 | 31 | 150 | 6.4 | 8.0 | 0.00 | 0.00 | 0.00 | 67 | 1016.0 |
| 20260831165515 | 31 | 167 | 4.8 | 4.8 | 0.00 | 0.00 | 0.00 | 68 | 1016.0 |
| 20260831164515 | 31 | 318 | 1.6 | 6.4 | 0.00 | 0.00 | 0.00 | 68 | 1016.1 |
| 20260831164014 | 31 | 287 | 3.2 | 6.4 | 0.00 | 0.00 | 0.00 | 69 | 1016.1 |
| 20260831163514 | 31 | 138 | 0.0 | 3.2 | 0.00 | 0.00 | 0.00 | 69 | 1016.0 |
| 20260831162514 | 31 | 148 | 4.8 | 11.3 | 0.00 | 0.00 | 0.00 | 70 | 1016.1 |
| 20260831162022 | 31 | 313 | 1.6 | 4.8 | 0.00 | 0.00 | 0.00 | 70 | 1016.1 |
| 20260831161514 | 31 | 189 | 0.0 | 4.8 | 0.00 | 0.00 | 0.00 | 71 | 1016.1 |
| 20260831161014 | 31 | 166 | 1.6 | 6.4 | 0.00 | 0.00 | 0.00 | 70 | 1016.1 |
| 20260831160015 | 31 | 142 | 3.2 | 9.7 | 0.00 | 0.00 | 0.00 | 71 | 1016.0 |
| 20260831155514 | 31 | 135 | 3.2 | 11.3 | 0.00 | 0.00 | 0.00 | 71 | 1016.2 |
| 20260831155014 | 31 | 174 | 4.8 | 14.5 | 0.00 | 0.00 | 0.00 | 71 | 1016.2 |
| 20260831154514 | 31 | 190 | 3.2 | 14.5 | 0.00 | 0.00 | 0.00 | 71 | 1016.0 |
| 20260831154014 | 30 | 281 | 3.2 | 16.1 | 0.00 | 0.00 | 0.00 | 72 | 1015.9 |
| 20260831153514 | 30 | 93 | 11.3 | 16.1 | 0.00 | 0.00 | 0.00 | 73 | 1015.9 |
| 20260831152514 | 30 | 181 | 4.8 | 9.7 | 0.00 | 0.00 | 0.00 | 74 | 1015.9 |
| 20260831152014 | 30 | 123 | 1.6 | 8.0 | 0.00 | 0.00 | 0.00 | 74 | 1015.9 |
| 20260831150514 | 30 | 115 | 11.3 | 16.1 | 0.00 | 0.00 | 0.00 | 75 | 1015.9 |
| 20260831150014 | 29 | 111 | 9.7 | 11.3 | 0.00 | 0.00 | 0.00 | 77 | 1015.9 |
| 20260831145514 | 28 | 238 | 6.4 | 12.9 | 0.00 | 0.00 | 0.00 | 77 | 1015.8 |
| 20260831145014 | 28 | 130 | 4.8 | 12.9 | 0.00 | 0.00 | 0.00 | 78 | 1015.8 |
| 20260831144513 | 28 | 140 | 4.8 | 8.0 | 0.00 | 0.00 | 0.00 | 78 | 1015.7 |
| 20260831143517 | 28 | 123 | 12.9 | 12.9 | 0.00 | 0.00 | 0.00 | 79 | 1015.7 |
| 20260831142513 | 28 | 140 | 3.2 | 6.4 | 0.00 | 0.00 | 0.00 | 79 | 1015.7 |
| 20260831142013 | 28 | 142 | 0.0 | 6.4 | 0.00 | 0.00 | 0.00 | 79 | 1015.7 |
| 20260831141513 | 28 | 144 | 0.0 | 6.4 | 0.00 | 0.00 | 0.00 | 80 | 1015.7 |
| 20260831141014 | 28 | 153 | 0.0 | 11.3 | 0.00 | 0.00 | 0.00 | 80 | 1015.6 |
| 20260831140513 | 28 | 142 | 1.6 | 11.3 | 0.00 | 0.00 | 0.00 | 80 | 1015.6 |
| 20260831140013 | 28 | 248 | 1.6 | 6.4 | 0.00 | 0.00 | 0.00 | 80 | 1015.6 |
| 20260831135513 | 27 | 126 | 6.4 | 6.4 | 0.00 | 0.00 | 0.00 | 80 | 1015.6 |
| 20260831134513 | 27 | 140 | 0.0 | 3.2 | 0.00 | 0.00 | 0.00 | 81 | 1015.4 |
| 20260831134013 | 27 | 175 | 3.2 | 3.2 | 0.00 | 0.00 | 0.00 | 81 | 1015.3 |
| 20260831133513 | 27 | 107 | 0.0 | 1.6 | 0.00 | 0.00 | 0.00 | 81 | 1015.2 |
| 20260831133013 | 27 | 119 | 0.0 | 0.0 | 0.00 | 0.00 | 0.00 | 81 | 1015.2 |
| 20260831132513 | 27 | 116 | 0.0 | 0.0 | 0.00 | 0.00 | 0.00 | 81 | 1015.2 |
| 20260831132013 | 26 | 294 | 0.0 | 1.6 | 0.00 | 0.00 | 0.00 | 81 | 1015.2 |
| 20260831131513 | 26 | 150 | 0.0 | 3.2 | 0.00 | 0.00 | 0.00 | 81 | 1015.2 |
| 20260831131013 | 26 | 224 | 0.0 | 4.8 | 0.00 | 0.00 | 0.00 | 81 | 1015.1 |
| 20260831130013 | 26 | 144 | 3.2 | 6.4 | 0.00 | 0.00 | 0.00 | 81 | 1015.1 |
| 20260831125013 | 26 | 140 | 0.0 | 1.6 | 0.00 | 0.00 | 0.00 | 82 | 1014.9 |
| 20260831124512 | 26 | 140 | 0.0 | 3.2 | 0.00 | 0.00 | 0.00 | 82 | 1014.9 |
| 20260831124013 | 26 | 149 | 1.6 | 3.2 | 0.00 | 0.00 | 0.00 | 82 | 1014.8 |
| 20260831123512 | 26 | 176 | 0.0 | 0.0 | 0.00 | 0.00 | 0.00 | 82 | 1014.8 |
| 20260831123012 | 26 | 148 | 0.0 | 1.6 | 0.00 | 0.00 | 0.00 | 82 | 1014.9 |
| 20260831122512 | 26 | 205 | 0.0 | 1.6 | 0.00 | 0.00 | 0.00 | 82 | 1014.8 |
| 20260831122012 | 26 | 199 | 0.0 | 1.6 | 0.00 | 0.00 | 0.00 | 82 | 1014.7 |
| 20260831121512 | 26 | 184 | 0.0 | 3.2 | 0.00 | 0.00 | 0.00 | 82 | 1014.6 |
| 20260831121012 | 26 | 226 | 1.6 | 3.2 | 0.00 | 0.00 | 0.00 | 82 | 1014.6 |
| 20260831120512 | 26 | 178 | 0.0 | 0.0 | 0.00 | 0.00 | 0.00 | 82 | 1014.6 |
| 20260831120012 | 26 | 178 | 0.0 | 0.0 | 0.00 | 0.00 | 0.00 | 82 | 1014.6 |
| 20260831115512 | 26 | 205 | 0.0 | 0.0 | 0.00 | 0.00 | 0.00 | 81 | 1014.5 |
| 20260831115012 | 26 | 205 | 0.0 | 0.0 | 0.00 | 0.00 | 0.00 | 81 | 1014.6 |
| 20260831114512 | 26 | 205 | 0.0 | 0.0 | 0.00 | 0.00 | 0.00 | 82 | 1014.6 |
| 20260831114012 | 26 | 205 | 0.0 | 0.0 | 0.00 | 0.00 | 0.00 | 82 | 1014.7 |
| 20260831113511 | 26 | 148 | 0.0 | 0.0 | 0.00 | 0.00 | 0.00 | 81 | 1014.8 |
| 20260831113012 | 26 | 148 | 0.0 | 0.0 | 0.00 | 0.00 | 0.00 | 81 | 1014.8 |
| 20260831112512 | 26 | 148 | 0.0 | 3.2 | 0.00 | 0.00 | 0.00 | 81 | 1014.7 |
| 20260831111511 | 26 | 169 | 0.0 | 4.8 | 0.00 | 0.00 | 0.00 | 81 | 1014.7 |
| 20260831111011 | 26 | 166 | 0.0 | 4.8 | 0.00 | 0.00 | 0.00 | 81 | 1014.7 |
| 20260831110511 | 26 | 136 | 4.8 | 4.8 | 0.00 | 0.00 | 0.00 | 81 | 1014.7 |
| 20260831110011 | 26 | 136 | 3.2 | 4.8 | 0.00 | 0.00 | 0.00 | 81 | 1014.7 |
| 20260831105511 | 26 | 140 | 3.2 | 3.2 | 0.00 | 0.00 | 0.00 | 81 | 1014.7 |
| 20260831105011 | 26 | 140 | 0.0 | 3.2 | 0.00 | 0.00 | 0.00 | 81 | 1014.6 |
| 20260831104011 | 26 | 233 | 0.0 | 0.0 | 0.00 | 0.00 | 0.00 | 81 | 1014.5 |
| 20260831103511 | 26 | 149 | 0.0 | 0.0 | 0.00 | 0.00 | 0.00 | 81 | 1014.6 |
| 20260831103011 | 26 | 206 | 0.0 | 0.0 | 0.00 | 0.00 | 0.00 | 81 | 1014.5 |
| 20260831102511 | 26 | 153 | 0.0 | 0.0 | 0.00 | 0.00 | 0.00 | 81 | 1014.6 |
| 20260831102011 | 26 | 153 | 0.0 | 0.0 | 0.00 | 0.00 | 0.00 | 81 | 1014.5 |
| 20260831101511 | 26 | 153 | 0.0 | 0.0 | 0.00 | 0.00 | 0.00 | 81 | 1014.5 |
| 20260831101011 | 26 | 254 | 0.0 | 3.2 | 0.00 | 0.00 | 0.00 | 81 | 1014.6 |
| 20260831100511 | 26 | 136 | 0.0 | 4.8 | 0.00 | 0.00 | 0.00 | 81 | 1014.6 |
| 20260831095011 | 26 | 103 | 0.0 | 4.8 | 0.00 | 0.00 | 0.00 | 81 | 1014.7 |
| 20260831094511 | 26 | 134 | 1.6 | 4.8 | 0.00 | 0.00 | 0.00 | 80 | 1014.7 |
| 20260831094011 | 26 | 134 | 0.0 | 3.2 | 0.00 | 0.00 | 0.00 | 80 | 1014.6 |
| 20260831093511 | 26 | 182 | 3.2 | 3.2 | 0.00 | 0.00 | 0.00 | 80 | 1014.7 |
| 20260831093011 | 26 | 157 | 0.0 | 1.6 | 0.00 | 0.00 | 0.00 | 80 | 1014.7 |
| 20260831092511 | 26 | 145 | 0.0 | 6.4 | 0.00 | 0.00 | 0.00 | 80 | 1014.6 |
| 20260831092011 | 26 | 148 | 4.8 | 6.4 | 0.00 | 0.00 | 0.00 | 80 | 1014.5 |
| 20260831091510 | 26 | 182 | 1.6 | 1.6 | 0.00 | 0.00 | 0.00 | 80 | 1014.4 |
| 20260831091011 | 27 | 187 | 1.6 | 3.2 | 0.00 | 0.00 | 0.00 | 80 | 1014.4 |
| 20260831090510 | 27 | 216 | 1.6 | 6.4 | 0.00 | 0.00 | 0.00 | 80 | 1014.4 |
| 20260831090010 | 27 | 262 | 1.6 | 6.4 | 0.00 | 0.00 | 0.00 | 80 | 1014.4 |
| 20260831085010 | 27 | 180 | 4.8 | 6.4 | 0.00 | 0.00 | 0.00 | 80 | 1014.5 |
| 20260831084510 | 27 | 200 | 4.8 | 16.1 | 0.00 | 0.00 | 0.00 | 80 | 1014.5 |
| 20260831083510 | 27 | 220 | 1.6 | 11.3 | 0.00 | 0.00 | 0.00 | 79 | 1014.5 |
| 20260831083010 | 27 | 127 | 1.6 | 11.3 | 0.00 | 0.00 | 0.00 | 79 | 1014.5 |
| 20260831082510 | 27 | 138 | 6.4 | 11.3 | 0.00 | 0.00 | 0.00 | 79 | 1014.6 |
| 20260831082010 | 27 | 108 | 3.2 | 14.5 | 0.00 | 0.00 | 0.00 | 79 | 1014.6 |
| 20260831081510 | 27 | 223 | 8.0 | 14.5 | 0.00 | 0.00 | 0.00 | 78 | 1014.7 |
| 20260831081010 | 27 | 128 | 1.6 | 6.4 | 0.00 | 0.00 | 0.00 | 78 | 1014.6 |
| 20260831080510 | 27 | 132 | 6.4 | 6.4 | 0.00 | 0.00 | 0.00 | 78 | 1014.6 |
| 20260831080010 | 27 | 139 | 4.8 | 6.4 | 0.00 | 0.00 | 0.00 | 77 | 1014.6 |
| 20260831075510 | 27 | 167 | 1.6 | 6.4 | 0.00 | 0.00 | 0.00 | 77 | 1014.5 |
| 20260831075010 | 27 | 263 | 3.2 | 3.2 | 0.00 | 0.00 | 0.00 | 77 | 1014.5 |
| 20260831074509 | 27 | 134 | 0.0 | 6.4 | 0.00 | 0.00 | 0.00 | 77 | 1014.6 |
| 20260831074009 | 27 | 180 | 3.2 | 6.4 | 0.00 | 0.00 | 0.00 | 76 | 1014.6 |
| 20260831073509 | 27 | 136 | 1.6 | 3.2 | 0.00 | 0.00 | 0.00 | 76 | 1014.7 |
| 20260831073009 | 27 | 136 | 1.6 | 4.8 | 0.00 | 0.00 | 0.00 | 76 | 1014.7 |
| 20260831072509 | 27 | 126 | 4.8 | 4.8 | 0.00 | 0.00 | 0.00 | 75 | 1014.6 |
| 20260831071509 | 27 | 207 | 0.0 | 6.4 | 0.00 | 0.00 | 0.00 | 75 | 1014.6 |
| 20260831071009 | 27 | 170 | 1.6 | 6.4 | 0.00 | 0.00 | 0.00 | 74 | 1014.6 |
| 20260831070009 | 27 | 157 | 4.8 | 6.4 | 0.00 | 0.00 | 0.00 | 74 | 1014.7 |
| 20260831065509 | 27 | 91 | 0.0 | 8.0 | 0.00 | 0.00 | 0.00 | 73 | 1014.7 |
| 20260831065009 | 28 | 208 | 1.6 | 8.0 | 0.00 | 0.00 | 0.00 | 73 | 1014.7 |
| 20260831064509 | 28 | 133 | 4.8 | 9.7 | 0.00 | 0.00 | 0.00 | 73 | 1014.7 |
| 20260831063008 | 28 | 121 | 1.6 | 4.8 | 0.00 | 0.00 | 0.00 | 71 | 1014.8 |
| 20260831062508 | 28 | 150 | 0.0 | 3.2 | 0.00 | 0.00 | 0.00 | 71 | 1014.9 |
| 20260831062008 | 28 | 293 | 1.6 | 4.8 | 0.00 | 0.00 | 0.00 | 70 | 1014.7 |
| 20260831061508 | 28 | 112 | 3.2 | 9.7 | 0.00 | 0.00 | 0.00 | 70 | 1014.8 |
| 20260831061008 | 28 | 213 | 4.8 | 9.7 | 0.00 | 0.00 | 0.00 | 70 | 1014.7 |
| 20260831060508 | 28 | 243 | 4.8 | 8.0 | 0.00 | 0.00 | 0.00 | 70 | 1014.7 |
| 20260831060008 | 28 | 207 | 3.2 | 6.4 | 0.00 | 0.00 | 0.00 | 69 | 1014.7 |
| 20260831055508 | 28 | 127 | 1.6 | 8.0 | 0.00 | 0.00 | 0.00 | 69 | 1014.5 |
| 20260831055008 | 28 | 154 | 3.2 | 17.7 | 0.00 | 0.00 | 0.00 | 68 | 1014.5 |
| 20260831054508 | 29 | 142 | 4.8 | 17.7 | 0.00 | 0.00 | 0.00 | 68 | 1014.5 |
| 20260831053508 | 29 | 196 | 3.2 | 8.0 | 0.00 | 0.00 | 0.00 | 66 | 1014.4 |
| 20260831052008 | 30 | 127 | 3.2 | 4.8 | 0.00 | 0.00 | 0.00 | 65 | 1014.4 |
| 20260831051007 | 30 | 171 | 1.6 | 12.9 | 0.00 | 0.00 | 0.00 | 65 | 1014.2 |
| 20260831050037 | 30 | 196 | 1.6 | 8.0 | 0.00 | 0.00 | 0.00 | 64 | 1014.2 |
| 20260831045508 | 30 | 167 | 8.0 | 8.0 | 0.00 | 0.00 | 0.00 | 63 | 1014.0 |
| 20260831045007 | 30 | 155 | 0.0 | 4.8 | 0.00 | 0.00 | 0.00 | 62 | 1014.0 |
| 20260831044507 | 30 | 192 | 0.0 | 6.4 | 0.00 | 0.00 | 0.00 | 62 | 1014.1 |
| 20260831044007 | 30 | 181 | 4.8 | 8.0 | 0.00 | 0.00 | 0.00 | 62 | 1014.1 |
| 20260831042507 | 30 | 123 | 0.0 | 4.8 | 0.00 | 0.00 | 0.00 | 60 | 1013.9 |
| 20260831042007 | 30 | 103 | 4.8 | 8.0 | 0.00 | 0.00 | 0.00 | 60 | 1014.0 |
| 20260831041507 | 31 | 126 | 0.0 | 16.1 | 0.00 | 0.00 | 0.00 | 59 | 1014.2 |
| 20260831041007 | 31 | 157 | 1.6 | 16.1 | 0.00 | 0.00 | 0.00 | 59 | 1014.2 |
| 20260831040007 | 31 | 169 | 0.0 | 3.2 | 0.00 | 0.00 | 0.00 | 58 | 1014.2 |
| 20260831035507 | 31 | 119 | 3.2 | 11.3 | 0.00 | 0.00 | 0.00 | 57 | 1013.9 |
| 20260831034507 | 31 | 213 | 4.8 | 9.7 | 0.00 | 0.00 | 0.00 | 57 | 1013.8 |
| 20260831034006 | 31 | 265 | 3.2 | 12.9 | 0.00 | 0.00 | 0.00 | 56 | 1013.7 |
| 20260831033507 | 31 | 121 | 4.8 | 16.1 | 0.00 | 0.00 | 0.00 | 56 | 1013.7 |
| 20260831033006 | 31 | 163 | 9.7 | 16.1 | 0.00 | 0.00 | 0.00 | 56 | 1013.6 |
| 20260831032507 | 31 | 238 | 1.6 | 9.7 | 0.00 | 0.00 | 0.00 | 55 | 1013.6 |
| 20260831032006 | 32 | 121 | 8.0 | 9.7 | 0.00 | 0.00 | 0.00 | 55 | 1013.7 |
| 20260831031506 | 32 | 155 | 9.7 | 11.3 | 0.00 | 0.00 | 0.00 | 55 | 1013.6 |
| 20260831031006 | 32 | 136 | 3.2 | 11.3 | 0.00 | 0.00 | 0.00 | 54 | 1013.5 |
| 20260831030507 | 32 | 111 | 4.8 | 14.5 | 0.00 | 0.00 | 0.00 | 54 | 1013.4 |
| 20260831030006 | 32 | 132 | 6.4 | 14.5 | 0.00 | 0.00 | 0.00 | 54 | 1013.3 |
| 20260831025506 | 32 | 223 | 3.2 | 6.4 | 0.00 | 0.00 | 0.00 | 54 | 1013.1 |
| 20260831025006 | 32 | 107 | 4.8 | 19.3 | 0.00 | 0.00 | 0.00 | 53 | 1013.0 |